Glasgow, United Kingdom

1:58 AM GMT on December 12, 2017 (GMT +0000)
Glasgow

Weather History for EGPF - March, 2013

Change the Weather History Date:

Sunday, March 17, 2013

  Actual Average Record
Temperature  
Mean Temperature 38 °F -  
Max Temperature 42 °F 50 °F 57 °F (2002)
Min Temperature 33 °F 36 °F 24 °F (2003)
Degree Days  
Heating Degree Days 28    
Moisture  
Dew Point 35 °F    
Average Humidity 91    
Maximum Humidity 100    
Minimum Humidity 81    
Precipitation  
Precipitation 0.00 in - - ()
Sea Level Pressure  
Sea Level Pressure 29.20 in    
Wind  
Wind Speed 6 mph ()    
Max Wind Speed 14 mph    
Max Gust Speed -    
Visibility 5.6 miles    
Events Rain , Snow    
Averages and records for this station are not official NWS values.
T = Trace of Precipitation, MM = Missing Value Source: Averaged Metar Reports

Daily Weather History Graph

Daily Weather History Graph

Search for Another Location

Airport or City:

Trip Planner

Search our weather history database for the weather conditions in past years. The results will help you decide how hot, cold, wet, or windy it might be!

Date:

Astronomy

Mar. 17, 2013 Rise Set
Actual Time 6:27 AM GMT 6:25 PM GMT
Civil Twilight 5:50 AM GMT 7:02 PM GMT
Nautical Twilight 5:07 AM GMT 7:46 PM GMT
Astronomical Twilight 4:21 AM GMT 8:32 PM GMT
Moon 8:31 AM GMT (3/17) 12:17 AM GMT (3/17)
Length of Visible Light 13h 11m
Length of Day
11h 58m
Waxing Crescent, 30% of the Moon is Illuminated
Mar 17
Waxing Crescent
Mar 19
First Quarter
Mar 27
Full
Apr 3
Last Quarter
Apr 10
New

Hourly Weather History & Observations

Time (GMT) Temp. Windchill Dew Point Humidity Pressure Visibility Wind Dir Wind Speed Gust Speed Precip Events Conditions
12:20 AM 35.6 °F 31.7 °F 33.8 °F 93% 29.24 in 6.2 mi ESE 4.6 mph - N/A   Mostly Cloudy
12:50 AM 35.6 °F 31.7 °F 33.8 °F 93% 29.24 in 4.3 mi East 4.6 mph - N/A   Light Drizzle
1:20 AM 35.6 °F 30.7 °F 35.6 °F 100% 29.24 in 5.6 mi East 5.8 mph - N/A   Light Drizzle
1:50 AM 35.6 °F 30.7 °F 33.8 °F 93% 29.24 in 5.6 mi NE 5.8 mph - N/A   Overcast
2:20 AM 35.6 °F 30.7 °F 33.8 °F 93% 29.21 in 5.6 mi ENE 5.8 mph - N/A   Overcast
2:50 AM 35.6 °F 29.2 °F 33.8 °F 93% 29.21 in 3.7 mi ENE 8.1 mph - N/A   Overcast
3:20 AM 33.8 °F 27.7 °F 32.0 °F 93% 29.21 in 5.0 mi ENE 6.9 mph - N/A   Mostly Cloudy
3:50 AM 35.6 °F 29.2 °F 33.8 °F 93% 29.21 in 5.0 mi ENE 8.1 mph - N/A   Overcast
4:20 AM 33.8 °F 27.7 °F 32.0 °F 93% 29.21 in 5.0 mi ENE 6.9 mph - N/A   Mostly Cloudy
4:50 AM 33.8 °F 28.6 °F 32.0 °F 93% 29.21 in 4.3 mi ENE 5.8 mph - N/A   Scattered Clouds
5:20 AM 33.8 °F 30.8 °F 32.0 °F 93% 29.21 in 4.3 mi East 3.5 mph - N/A   Mostly Cloudy
5:50 AM 33.8 °F 29.6 °F 33.8 °F 100% 29.18 in 5.0 mi East 4.6 mph - N/A Rain Light Rain
6:20 AM 33.8 °F 30.8 °F 32.0 °F 93% 29.18 in 6.2 mi East 3.5 mph - N/A Snow Light Snow
6:50 AM 33.8 °F - 32.0 °F 93% 29.18 in 6.2 mi Calm Calm - N/A   Light Drizzle
7:20 AM 35.6 °F - 33.8 °F 93% 29.18 in 6.2 mi Calm Calm - N/A   Overcast
7:50 AM 35.6 °F - 33.8 °F 93% 29.18 in 6.2 mi Calm Calm - N/A   Mostly Cloudy
8:20 AM 35.6 °F 31.7 °F 33.8 °F 93% 29.18 in 6.2 mi West 4.6 mph - N/A Rain Light Rain
8:50 AM 35.6 °F 32.8 °F 33.8 °F 93% 29.18 in 6.2 mi West 3.5 mph - N/A   Light Drizzle
9:20 AM 35.6 °F 31.7 °F 33.8 °F 93% 29.18 in 6.2 mi West 4.6 mph - N/A Rain Light Rain
9:50 AM 39.2 °F 37.0 °F 37.4 °F 93% 29.15 in 5.6 mi Variable 3.5 mph - N/A   Mostly Cloudy
10:20 AM 41.0 °F 35.8 °F 37.4 °F 87% 29.15 in 6.2 mi ENE 8.1 mph - N/A   Light Drizzle
10:50 AM 41.0 °F 36.4 °F 37.4 °F 87% 29.15 in 6.2 mi NE 6.9 mph - N/A   Light Drizzle
11:20 AM 41.0 °F 37.1 °F 37.4 °F 87% 29.15 in 6.2 mi NE 5.8 mph - N/A   Light Drizzle
11:50 AM 41.0 °F 35.8 °F 37.4 °F 87% 29.15 in 6.2 mi NE 8.1 mph - N/A   Light Drizzle
12:20 PM 42.8 °F 38.6 °F 39.2 °F 87% 29.15 in 6.2 mi NE 6.9 mph - N/A   Mostly Cloudy
12:50 PM 42.8 °F 36.6 °F 39.2 °F 87% 29.15 in 6.2 mi NE 11.5 mph - N/A   Overcast
1:20 PM 42.8 °F 37.5 °F 37.4 °F 81% 29.15 in 6.2 mi NNE 9.2 mph - N/A   Mostly Cloudy
1:50 PM 42.8 °F 36.2 °F 37.4 °F 81% 29.12 in 6.2 mi East 12.7 mph - N/A Rain Light Rain
2:20 PM 41.0 °F 34.3 °F 37.4 °F 87% 29.15 in 5.0 mi ENE 11.5 mph - N/A Rain Light Rain
2:50 PM 39.2 °F 34.2 °F 37.4 °F 93% 29.15 in 4.3 mi ENE 6.9 mph - N/A Rain Light Rain
3:20 PM 39.2 °F 35.0 °F 37.4 °F 93% 29.15 in 6.2 mi ENE 5.8 mph - N/A Rain Light Rain
3:50 PM 39.2 °F 32.5 °F 37.4 °F 93% 29.15 in 6.2 mi NE 10.4 mph - N/A Rain Light Rain
4:20 PM 39.2 °F 34.2 °F 37.4 °F 93% 29.15 in 6.2 mi ENE 6.9 mph - N/A   Overcast
4:50 PM 39.2 °F 33.6 °F 35.6 °F 87% 29.15 in 6.2 mi East 8.1 mph - N/A   Mostly Cloudy
5:20 PM 39.2 °F 32.5 °F 35.6 °F 87% 29.18 in 6.2 mi ESE 10.4 mph - N/A   Overcast
5:50 PM 37.4 °F 30.3 °F 35.6 °F 93% 29.18 in 6.2 mi ESE 10.4 mph - N/A   Mostly Cloudy
6:20 PM 37.4 °F 31.4 °F 35.6 °F 93% 29.21 in 5.0 mi ESE 8.1 mph - N/A   Overcast
6:50 PM 39.2 °F 34.2 °F 35.6 °F 87% 29.21 in 6.2 mi ESE 6.9 mph - N/A   Overcast
7:20 PM 37.4 °F 33.8 °F 33.8 °F 87% 29.24 in 6.2 mi ENE 4.6 mph - N/A   Mostly Cloudy
7:50 PM 37.4 °F 31.4 °F 33.8 °F 87% 29.24 in 6.2 mi ENE 8.1 mph - N/A   Mostly Cloudy
8:20 PM 37.4 °F 32.8 °F 35.6 °F 93% 29.24 in 6.2 mi ENE 5.8 mph - N/A   Mostly Cloudy
8:50 PM 39.2 °F 33.0 °F 35.6 °F 87% 29.24 in 6.2 mi ENE 9.2 mph - N/A   Mostly Cloudy
9:20 PM 39.2 °F 31.6 °F 35.6 °F 87% 29.24 in 6.2 mi ENE 12.7 mph - N/A   Overcast
9:50 PM 39.2 °F 31.2 °F 35.6 °F 87% 29.24 in 6.2 mi ENE 13.8 mph - N/A   Mostly Cloudy
10:20 PM 37.4 °F 29.3 °F 33.8 °F 87% 29.27 in 4.3 mi East 12.7 mph - N/A Rain Light Rain
10:50 PM 35.6 °F 28.0 °F 33.8 °F 93% 29.27 in 4.3 mi ENE 10.4 mph - N/A Rain Rain
11:20 PM 35.6 °F 29.9 °F 33.8 °F 93% 29.27 in 4.3 mi ENE 6.9 mph - N/A Rain Rain
11:50 PM 35.6 °F 30.7 °F 33.8 °F 93% 29.27 in 5.0 mi East 5.8 mph - N/A Rain Rain